Location: Henham
(51.9333°N, 0.2500°E)
Time: 23:01:19
(UTC+00:00)

Cosmos 2173 Rocket - Pass Details

Date: 23 October 2019
Orbit: 944 x 1001 km, 83.0° (Epoch: 21 November)

Event Time Altitude Azimuth Distance (km) Brightness Sun altitude
Rises 18:06:19 0° 351° (N) 3,699 7.1 -12.5°
Reaches altitude 10° 18:08:57 10° 357° (N) 2,738 6.4 -13.0°
Maximum altitude 18:15:03 52° 73° (ENE) 1,192 4.1 -13.9°
Drops below altitude 10° 18:21:02 10° 149° (SSE) 2,683 6.0 -14.8°
Sets 18:23:34 0° 155° (SSE) 3,618 6.7 -15.2°
